LogDate,PM10,SO2,WIND,WINDS
9/1/2010 12:00:00 AM,105.7472727,1.11,275.1013009,0.493636364
9/1/2010 1:00:00 AM,117.3909091,0.994545455,76.37573469,1.069090909
9/1/2010 2:00:00 AM,119.77,1.025454545,340.695706,0.418181818
9/1/2010 3:00:00 AM,76.53090909,0.938181818,305.7051304,0.708181818
9/1/2010 4:00:00 AM,79.03090909,0.919090909,0.579646152,1.037272727
9/1/2010 5:00:00 AM,102.7045455,2.315454545,18.13882647,1.479090909
9/1/2010 6:00:00 AM,169.8063636,3.549090909,265.3601744,0.525454545
9/1/2010 7:00:00 AM,371.2009091,3.93,245.6758863,0.630909091
9/1/2010 8:00:00 AM,435.4390909,4.325454545,202.8725496,0.877272727
9/1/2010 9:00:00 AM,440.1690909,8.567272727,289.472378,1.771818182
9/1/2010 10:00:00 AM,231.7318182,6.488181818,304.3449712,2.618181818
9/1/2010 11:00:00 AM,79.80727273,4.84,309.3843117,2.382727273
9/1/2010 12:00:00 PM,71.87090909,3.978181818,282.0197691,2.209090909
9/1/2010 1:00:00 PM,61.99636364,3.589090909,281.9698953,2.825454545
9/1/2010 2:00:00 PM,95.75454545,4.02,314.8688703,2.919090909
9/1/2010 3:00:00 PM,185.3909091,4.02,301.7281494,3.273636364
9/1/2010 4:00:00 PM,68.31909091,4.02,328.1147473,2.692727273
9/1/2010 5:00:00 PM,71.14181818,4.539090909,342.0035333,1.778181818
9/1/2010 6:00:00 PM,110.4627273,4.038181818,9.934280845,1.916363636
9/1/2010 7:00:00 PM,167.2045455,4.1,10.50297343,2.023636364
9/1/2010 8:00:00 PM,147.8827273,4.173636364,12.93710196,1.909090909
9/1/2010 9:00:00 PM,147.6945455,3.261818182,266.8949712,0.743636364
9/1/2010 10:00:00 PM,243.7463636,3.022727273,81.09376426,0.859090909
9/1/2010 11:00:00 PM,177.3945455,2.729090909,75.68181879,1.216363636
9/2/2010 12:00:00 AM,92.87090909,2.882727273,15.19149999,0.590909091
9/2/2010 1:00:00 AM,64.21,2.552727273,43.06158132,0.531818182
9/2/2010 2:00:00 AM,81.41181818,2.7,13.52840812,0.759090909
9/2/2010 3:00:00 AM,70.74090909,1.960909091,45.9097384,1.227272727
9/2/2010 4:00:00 AM,72.07909091,1.383636364,20.4052205,0.740909091
9/2/2010 5:00:00 AM,103.6245455,1.878181818,22.97987001,0.739090909
9/2/2010 6:00:00 AM,150.2209091,3.385454545,45.27010318,0.721818182
9/2/2010 7:00:00 AM,450.9863636,4.464545455,291.7166848,0.581818182
9/2/2010 8:00:00 AM,421.7309091,4.196363636,219.8460038,0.606363636
9/2/2010 9:00:00 AM,604.5127273,7.060909091,292.5859414,2.069090909
9/2/2010 10:00:00 AM,108.9027273,2.993636364,295.7665286,3.445454545
9/2/2010 11:00:00 AM,131.0063636,1.909090909,288.4255537,4.585454545
9/2/2010 12:00:00 PM,260.4927273,3.138181818,291.9657267,4.674545455
9/2/2010 1:00:00 PM,246.8245455,1.303636364,272.2888863,3.99
9/2/2010 2:00:00 PM,141.2672727,1.200909091,266.3457269,4.15
9/2/2010 3:00:00 PM,151.8690909,1.067272727,286.2747625,3.880909091
9/2/2010 4:00:00 PM,137.1836364,1.096363636,291.7127263,3.364545455
9/2/2010 5:00:00 PM,111.0445455,1.675454545,300.114418,2.16
9/2/2010 6:00:00 PM,157.2218182,2.072727273,322.6677621,1.461818182
9/2/2010 7:00:00 PM,233.5681818,2.719090909,319.8210622,2.146363636
9/2/2010 8:00:00 PM,158.3045455,1.749090909,323.8279892,2.006363636
9/2/2010 9:00:00 PM,124.2818182,1.17,353.0427692,1.709090909
9/2/2010 10:00:00 PM,121.9618182,1.279090909,77.3778074,1.454545455
9/2/2010 11:00:00 PM,143.7990909,1.895454545,149.9882363,2.875454545
9/3/2010 12:00:00 AM,103.4281818,2.693636364,171.9036639,2.111818182
9/3/2010 1:00:00 AM,74.82181818,2.357272727,161.9130197,1.673636364
9/3/2010 2:00:00 AM,47.44090909,1.671818182,178.0341176,1.700909091
9/3/2010 3:00:00 AM,72.50818182,1.234285714,166.3993877,2.437272727
9/3/2010 4:00:00 AM,52.99,2.045,165.1165047,1.156363636
9/3/2010 5:00:00 AM,59.94272727,9.623636364,136.5312071,1.302727273
9/3/2010 6:00:00 AM,138.8136364,5.569090909,124.044353,1.195454545
9/3/2010 7:00:00 AM,235.25,4.989090909,210.0622531,1.221818182
9/3/2010 8:00:00 AM,263.5427273,4.078181818,181.9733001,1.076363636
9/3/2010 9:00:00 AM,239.23,7.2,68.58112925,2.411818182
9/3/2010 10:00:00 AM,179.2281818,,72.11799503,2.725454545
9/3/2010 11:00:00 AM,141.2254545,18.12,39.50782241,1.663636364
9/3/2010 12:00:00 PM,85.10363636,15.73454545,321.7436773,1.820909091
9/3/2010 1:00:00 PM,96.50363636,11.25909091,295.7820508,2.913636364
9/3/2010 2:00:00 PM,178.6163636,7.802727273,316.6348202,3.53
9/3/2010 3:00:00 PM,441.1981818,7.614545455,318.8184131,3.653636364
9/3/2010 4:00:00 PM,154.5327273,7.719090909,328.9064714,3.040909091
9/3/2010 5:00:00 PM,119.9109091,6.894545455,356.8769883,1.981818182
9/3/2010 6:00:00 PM,150.1,5.517272727,25.74438304,2.296363636
9/3/2010 7:00:00 PM,198.37,4.968181818,45.15714638,3.019090909
9/3/2010 8:00:00 PM,218.1963636,3.298181818,42.19689461,5.113636364
9/3/2010 9:00:00 PM,159.8963636,1.847272727,48.29801476,4.726363636
9/3/2010 10:00:00 PM,96.59909091,2.474545455,62.74704829,1.432727273
9/3/2010 11:00:00 PM,87.63363636,1.92,35.22485853,1.985454545
9/4/2010 12:00:00 AM,64.64272727,1.702727273,38.0244439,2.451818182
9/4/2010 1:00:00 AM,57.33181818,1.780909091,28.26707666,1.711818182
9/4/2010 2:00:00 AM,53.91545455,1.950909091,42.36779332,2.534545455
9/4/2010 3:00:00 AM,55.56727273,1.847272727,45.61811446,2.128181818
9/4/2010 4:00:00 AM,47.45636364,1.647142857,29.47060801,1.873636364
9/4/2010 5:00:00 AM,50.38181818,,4.602849381,1.070909091
9/4/2010 6:00:00 AM,67.33818182,1.44375,41.0803458,1.048181818
9/4/2010 7:00:00 AM,161.0863636,2.279090909,10.28986217,1.57
9/4/2010 8:00:00 AM,137.8445455,3.578181818,349.765321,1.969090909
9/4/2010 9:00:00 AM,117.4563636,4.000909091,294.2897723,3.294545455
9/4/2010 10:00:00 AM,87.56727273,4.02,309.3616524,3.779090909
9/4/2010 11:00:00 AM,97.69545455,3.567272727,314.6510184,3.378181818
9/4/2010 12:00:00 PM,94.51818182,3.656363636,314.8371156,3.038181818
9/4/2010 1:00:00 PM,103.3390909,5.358181818,311.1436121,3.325454545
9/4/2010 2:00:00 PM,249.7618182,3.613636364,278.7414998,4.111818182
9/4/2010 3:00:00 PM,97.29909091,3.874545455,300.967272,3.479090909
9/4/2010 4:00:00 PM,83.88090909,3.919090909,327.6919887,3.27
9/4/2010 5:00:00 PM,83.82090909,3.899090909,339.9198207,2.374545455
9/4/2010 6:00:00 PM,99.98272727,3.718181818,345.4151463,1.9
9/4/2010 7:00:00 PM,134.0345455,3.541818182,10.84758308,1.784545455
9/4/2010 8:00:00 PM,197.8872727,3.09,9.458569346,1.289090909
9/4/2010 9:00:00 PM,182.0890909,2.552727273,27.71352173,0.778181818
9/4/2010 10:00:00 PM,210.6918182,1.937272727,89.74704992,1.122727273
9/4/2010 11:00:00 PM,127.8218182,2.022727273,90.28807985,1.522727273
9/5/2010 12:00:00 AM,100.8090909,1.695454545,119.867022,0.830909091
9/5/2010 1:00:00 AM,127.5963636,2.079090909,334.6003803,0.917272727
9/5/2010 2:00:00 AM,109.0581818,1.365454545,83.2058106,0.825454545
9/5/2010 3:00:00 AM,113.5136364,1.297272727,139.9416037,0.307272727
9/5/2010 4:00:00 AM,123.3318182,1.333636364,147.4545049,0.460909091
9/5/2010 5:00:00 AM,134.8,1.296363636,102.3353422,0.463636364
9/5/2010 6:00:00 AM,75.51272727,1.407272727,1.702929394,0.580909091
9/5/2010 7:00:00 AM,247.7636364,1.932727273,60.02349087,0.631818182
9/5/2010 8:00:00 AM,462.5045455,2.01,228.1055708,0.733636364
9/5/2010 9:00:00 AM,484.5690909,1.791818182,234.9944361,1.05
9/5/2010 10:00:00 AM,166.6445455,1.120909091,249.22298,1.578181818
9/5/2010 11:00:00 AM,118.7536364,0.791818182,198.7628855,3.367272727
9/5/2010 12:00:00 PM,153.3772727,0.785454545,193.3172827,4.597272727
9/5/2010 1:00:00 PM,153.1627273,0.676363636,196.0687088,4.353636364
9/5/2010 2:00:00 PM,102.6909091,0.609090909,193.7075905,4.324545455
9/5/2010 3:00:00 PM,102.7454545,0.877272727,179.0343884,4.426363636
9/5/2010 4:00:00 PM,90.56090909,0.810909091,171.7673951,3.875454545
9/5/2010 5:00:00 PM,90.32454545,1.346363636,157.749225,2.822727273
9/5/2010 6:00:00 PM,143.81,0.877272727,116.9237476,2.114545455
9/5/2010 7:00:00 PM,97.37727273,1.706363636,101.9883937,2.365454545
9/5/2010 8:00:00 PM,123.7327273,1.538181818,101.1824633,2.091818182
9/5/2010 9:00:00 PM,113.6727273,1.426363636,184.2804694,0.531818182
9/5/2010 10:00:00 PM,175.08,1.926363636,105.2090777,1.328181818
9/5/2010 11:00:00 PM,89.28181818,1.986363636,174.295271,0.477272727
9/6/2010 12:00:00 AM,100.1290909,2.620909091,112.6756989,0.926363636
9/6/2010 1:00:00 AM,71.71363636,3.732727273,47.72474335,2.277272727
9/6/2010 2:00:00 AM,105.9381818,15.79090909,60.71605339,4.049090909
9/6/2010 3:00:00 AM,118.8145455,12.28363636,49.19940292,2.01
9/6/2010 4:00:00 AM,116.3845455,7.940909091,227.8316374,1.150909091
9/6/2010 5:00:00 AM,138.5245455,5.179090909,33.62067947,0.732727273
9/6/2010 6:00:00 AM,216.2281818,4.733636364,109.324004,0.742727273
9/6/2010 7:00:00 AM,474.1245455,4.800909091,55.03428308,0.958181818
9/6/2010 8:00:00 AM,264.1681818,3.856363636,16.73741762,2.779090909
9/6/2010 9:00:00 AM,115.2590909,4.176363636,352.9774498,2.419090909
9/6/2010 10:00:00 AM,176.97,4.089090909,309.1816821,2.352727273
9/6/2010 11:00:00 AM,119.8763636,4.877272727,290.2248052,2.838181818
9/6/2010 12:00:00 PM,121.8036364,4.039090909,303.5530217,2.772727273
9/6/2010 1:00:00 PM,94.73454545,3.84,299.1833186,2.384545455
9/6/2010 2:00:00 PM,115.3772727,3.192727273,324.730626,2.33
9/6/2010 3:00:00 PM,108.2345455,3.922727273,333.1367402,2.628181818
9/6/2010 4:00:00 PM,110.5490909,3.948181818,327.4689147,2.807272727
9/6/2010 5:00:00 PM,105.7436364,4.02,338.0156756,2.316363636
9/6/2010 6:00:00 PM,135.3927273,4.008181818,352.4036765,1.835454545
9/6/2010 7:00:00 PM,173.7018182,2.710909091,0.861158665,1.647272727
9/6/2010 8:00:00 PM,174.8963636,3.11,18.71510655,0.929090909
9/6/2010 9:00:00 PM,279.1745455,2.2,316.7364523,0.792727273
9/6/2010 10:00:00 PM,135.6254545,1.956363636,96.80790516,0.717272727
9/6/2010 11:00:00 PM,158.9836364,1.986363636,65.58458295,1.671818182
9/7/2010 12:00:00 AM,107.0872727,2.022727273,351.2974869,0.896363636
9/7/2010 1:00:00 AM,115.8036364,1.912727273,42.35496483,1.060909091
9/7/2010 2:00:00 AM,91.95909091,2.352727273,95.60170328,1.321818182
9/7/2010 3:00:00 AM,80.31272727,1.991818182,77.97665509,1.351818182
9/7/2010 4:00:00 AM,92.33818182,1.572727273,71.45117736,0.998181818
9/7/2010 5:00:00 AM,96.06181818,1.736363636,323.9223121,0.898181818
9/7/2010 6:00:00 AM,151.5045455,2.200909091,21.92058259,1.140909091
9/7/2010 7:00:00 AM,664.2781818,2.900909091,29.8406277,1.952727273
9/7/2010 8:00:00 AM,189.2445455,3.303636364,250.4359967,1.145454545
9/7/2010 9:00:00 AM,397.8445455,5.72,355.738603,2.566363636
9/7/2010 10:00:00 AM,272.0263636,10.59727273,4.470382297,3.033636364
9/7/2010 11:00:00 AM,384.6318182,6.383636364,346.3916095,2.21
9/7/2010 12:00:00 PM,133.63,6.069090909,314.6786836,1.995454545
9/7/2010 1:00:00 PM,107.1718182,4.79,310.3006446,2.844545455
9/7/2010 2:00:00 PM,156.3218182,3.563636364,296.3000486,3.011818182
9/7/2010 3:00:00 PM,124.8727273,2.710909091,326.0988494,2.597272727
9/7/2010 4:00:00 PM,131.6345455,2.661818182,318.9455572,2.852727273
9/7/2010 5:00:00 PM,115.7472727,2.68,330.8581808,1.683636364
9/7/2010 6:00:00 PM,144.9063636,3.719090909,32.4434867,1.916363636
9/7/2010 7:00:00 PM,254.7881818,3.566363636,40.25305695,2.817272727
9/7/2010 8:00:00 PM,169.7145455,6.81,42.0477642,4.507272727
9/7/2010 9:00:00 PM,128.8590909,1.967272727,46.9531233,5.115454545
9/7/2010 10:00:00 PM,110.44,1.938181818,44.8101719,3.077272727
9/7/2010 11:00:00 PM,61.46818182,1.333636364,43.28052008,4.729090909
9/8/2010 12:00:00 AM,70.74727273,1.247272727,48.17506742,4.835454545
9/8/2010 1:00:00 AM,58.55272727,1.267272727,51.36618102,4.057272727
9/8/2010 2:00:00 AM,40.80727273,1.482727273,29.34032351,1.160909091
9/8/2010 3:00:00 AM,32.94090909,1.383636364,74.73286269,1.301818182
9/8/2010 4:00:00 AM,33.55,1.359090909,122.0612945,0.677272727
9/8/2010 5:00:00 AM,33.73272727,1.371818182,357.9182053,1.144545455
9/8/2010 6:00:00 AM,37.93909091,1.365454545,40.67889743,1.187272727
9/8/2010 7:00:00 AM,79.05272727,1.560909091,49.51676388,1.588181818
9/8/2010 8:00:00 AM,249.5981818,2.499090909,16.07831272,1.902727273
9/8/2010 9:00:00 AM,215.2790909,3.573636364,3.827224272,1.910909091
9/8/2010 10:00:00 AM,140.1990909,1.75,332.2994452,2.615454545
9/8/2010 11:00:00 AM,141.5972727,2.553636364,341.3825955,3.125454545
9/8/2010 12:00:00 PM,209.4927273,3.47,335.0625825,3.253636364
9/8/2010 1:00:00 PM,97.96272727,1.427272727,316.3350125,3.492727273
9/8/2010 2:00:00 PM,231.7754545,1.425454545,309.8253362,4.092727273
9/8/2010 3:00:00 PM,211.54,1.279090909,314.9173347,3.993636364
9/8/2010 4:00:00 PM,154.7218182,1.31,317.6641099,3.948181818
9/8/2010 5:00:00 PM,91.38181818,1.341818182,328.1939381,2.463636364
9/8/2010 6:00:00 PM,93.34090909,1.548181818,14.97291439,1.475454545
9/8/2010 7:00:00 PM,162.0872727,1.505454545,350.6777298,2.261818182
9/8/2010 8:00:00 PM,96.84090909,2.012727273,345.9694462,2.652727273
9/8/2010 9:00:00 PM,72.14454545,4.33,340.0077655,2.101818182
9/8/2010 10:00:00 PM,70.43181818,5.147272727,349.6801423,1.317272727
9/8/2010 11:00:00 PM,82.63,6.117272727,39.52909517,2.726363636
9/9/2010 12:00:00 AM,69.94363636,5.959090909,38.32248236,2.392727273
9/9/2010 1:00:00 AM,63.18,4.549090909,17.57499121,2.02
9/9/2010 2:00:00 AM,51.83272727,5.013636364,29.00234743,2.55
9/9/2010 3:00:00 AM,49.46090909,5.056363636,47.57541785,2.207272727
9/9/2010 4:00:00 AM,72.51818182,2.444545455,49.62274981,3.258181818
9/9/2010 5:00:00 AM,52.63727273,1.396363636,51.27859711,3.597272727
9/9/2010 6:00:00 AM,51.05090909,1.328181818,51.74934477,3.533636364
9/9/2010 7:00:00 AM,53.73727273,2.109090909,12.31613414,1.638181818
9/9/2010 8:00:00 AM,83.68454545,2.208181818,20.48678249,2.797272727
9/9/2010 9:00:00 AM,217.1072727,3.578181818,1.338788779,2.648181818
9/9/2010 10:00:00 AM,571.7690909,2.098181818,344.1804538,2.451818182
9/9/2010 11:00:00 AM,113.66,2.596363636,279.4353579,3.137272727
9/9/2010 12:00:00 PM,77.67181818,2.272727273,321.6804824,3.240909091
9/9/2010 1:00:00 PM,90.95727273,1.985454545,316.6116739,3.226363636
9/9/2010 2:00:00 PM,103.0890909,2.303636364,289.5373414,4.005454545
9/9/2010 3:00:00 PM,127.8390909,2.078181818,285.8982582,4.592727273
9/9/2010 4:00:00 PM,154.9063636,3.673636364,300.2176134,4.103636364
9/9/2010 5:00:00 PM,114.67,4.02,299.3260383,2.793636364
9/9/2010 6:00:00 PM,118.8854545,3.84,282.5302621,1.992727273
9/9/2010 7:00:00 PM,173.49,3.803636364,223.2783578,1.51
9/9/2010 8:00:00 PM,290.46,2.607272727,132.9698215,1.319090909
9/9/2010 9:00:00 PM,200.3863636,2.547272727,138.9759009,2.543636364
9/9/2010 10:00:00 PM,100.2590909,1.938181818,136.6475962,2.788181818
9/9/2010 11:00:00 PM,57.26454545,3.427272727,111.3347359,2.492727273
9/10/2010 12:00:00 AM,68.78818182,4.787272727,80.06564995,1.566363636
9/10/2010 1:00:00 AM,91.53363636,3.777272727,330.2845873,1.54
9/10/2010 2:00:00 AM,82.81727273,2.657272727,56.6831911,2.344545455
9/10/2010 3:00:00 AM,108.9709091,3.177272727,63.16279645,2.033636364
9/10/2010 4:00:00 AM,73.30454545,2.517272727,72.3173294,1.155454545
9/10/2010 5:00:00 AM,88.67181818,3.676363636,61.1122171,1.576363636
9/10/2010 6:00:00 AM,109.8945455,3.536363636,8.350882335,1.013636364
9/10/2010 7:00:00 AM,320.6190909,4.326363636,112.8195121,0.819090909
9/10/2010 8:00:00 AM,420.3527273,4.84,223.74325,1.272727273
9/10/2010 9:00:00 AM,331.1936364,7.551818182,146.7474182,2.791818182
9/10/2010 10:00:00 AM,129.5145455,10.45818182,350.4436144,1.586363636
9/11/2010 12:00:00 AM,,,,
9/11/2010 1:00:00 AM,212.9766667,3.218333333,65.91831503,3.285
9/11/2010 2:00:00 AM,129.5981818,2.73,118.8429083,1.343636364
9/11/2010 3:00:00 AM,117.3427273,2.427272727,112.6005695,1.785454545
9/11/2010 4:00:00 AM,110.21,2.740909091,99.62889805,2.427272727
9/11/2010 5:00:00 AM,104.0490909,2.968181818,85.25922088,3.281818182
9/11/2010 6:00:00 AM,92.77090909,3.941818182,78.33940193,4.164545455
9/11/2010 7:00:00 AM,105.0890909,4.314545455,81.93716672,3.535454545
9/11/2010 8:00:00 AM,121.3681818,6.903636364,69.85529425,3.550909091
9/11/2010 9:00:00 AM,107.33,6.037272727,36.24592242,3.148181818
9/11/2010 10:00:00 AM,108.1836364,3.310909091,41.51626897,3.857272727
9/11/2010 11:00:00 AM,116.3545455,1.785454545,45.72710974,4.056363636
9/11/2010 12:00:00 PM,112.2718182,1.230909091,37.82943985,3.863636364
9/11/2010 1:00:00 PM,107.3890909,1.042727273,21.78002151,3.138181818
9/11/2010 2:00:00 PM,94.87818182,1.219090909,12.54133883,3.177272727
9/11/2010 3:00:00 PM,96.15181818,1.365454545,26.49731474,3.815454545
9/11/2010 4:00:00 PM,78.34818182,1.102727273,359.8232162,3.452727273
9/11/2010 5:00:00 PM,76.89272727,1.109090909,25.60512828,3.179090909
9/11/2010 6:00:00 PM,85.37727273,1.578181818,31.00049212,2.248181818
9/11/2010 7:00:00 PM,125.9863636,2.621818182,44.55232368,3.012727273
9/11/2010 8:00:00 PM,110.3136364,2.579090909,37.11160771,4.468181818
9/11/2010 9:00:00 PM,99.82818182,3.889090909,42.75283544,4.837272727
9/11/2010 10:00:00 PM,97.39818182,1.742727273,43.09313522,5.067272727
9/11/2010 11:00:00 PM,82.22181818,1.212727273,44.00862415,4.103636364
9/12/2010 12:00:00 AM,51.73,0.67,53.48230742,4.06
9/12/2010 1:00:00 AM,43.01,0.658181818,51.05781585,3.92
9/12/2010 2:00:00 AM,37.03181818,0.663636364,46.27216044,3.785454545
9/12/2010 3:00:00 AM,37.88454545,0.67,44.84047352,3.49
9/12/2010 4:00:00 AM,33.61727273,0.719090909,46.83380939,2.994545455
9/12/2010 5:00:00 AM,27.87909091,1.091818182,46.56748937,2.409090909
9/12/2010 6:00:00 AM,36.35818182,0.823636364,49.21524274,2.213636364
9/12/2010 7:00:00 AM,73.33181818,1.818181818,45.76349533,2.614545455
9/12/2010 8:00:00 AM,64.60272727,2.128181818,350.50197,1.444545455
9/12/2010 9:00:00 AM,47.45636364,2.603636364,274.8462675,2.270909091
9/12/2010 10:00:00 AM,60.49363636,2.675454545,269.5722235,1.991818182
9/12/2010 11:00:00 AM,49.33636364,1.754545455,258.5357433,2.037272727
9/12/2010 12:00:00 PM,58.90727273,1.352727273,264.7482006,2.051818182
9/12/2010 1:00:00 PM,52.67545455,1.34,242.4760402,2.050909091
9/12/2010 2:00:00 PM,70.16636364,1.321818182,222.7297943,2.586363636
9/12/2010 3:00:00 PM,73.82090909,1.242727273,294.5777295,2.410909091
9/12/2010 4:00:00 PM,67.54727273,1.255454545,282.0787776,2.425454545
9/12/2010 5:00:00 PM,67.24363636,1.346363636,297.9167221,2.730909091
9/12/2010 6:00:00 PM,85.16636364,1.542727273,316.9005666,1.874545455
9/12/2010 7:00:00 PM,122.4463636,1.95,349.2076636,1.33
9/12/2010 8:00:00 PM,246.9763636,2.481818182,54.17932861,0.956363636
9/12/2010 9:00:00 PM,425.23,1.944545455,48.13013957,1.113636364
9/12/2010 10:00:00 PM,180.9945455,1.476363636,55.44717054,1.055454545
9/12/2010 11:00:00 PM,151.4145455,1.346363636,56.75706058,0.677272727
9/13/2010 12:00:00 AM,123.6736364,1.340909091,85.55319973,0.521818182
9/13/2010 1:00:00 AM,125.3781818,1.189090909,114.9681864,0.28
9/13/2010 2:00:00 AM,115.27,1.266363636,102.2611835,0.545454545
9/13/2010 3:00:00 AM,85.51272727,1.34,104.8565386,0.369090909
9/13/2010 4:00:00 AM,76.11636364,1.212727273,262.7669288,0.28
9/13/2010 5:00:00 AM,90.58363636,0.860909091,263.7022913,0.28
9/13/2010 6:00:00 AM,151.8345455,1.438181818,34.13646993,0.882727273
9/13/2010 7:00:00 AM,280.3663636,1.94,46.71832603,2.591818182
9/13/2010 8:00:00 AM,137.3663636,2.86,39.3581113,1.87
9/13/2010 9:00:00 AM,125.56,4.010909091,293.2435021,1.224545455
9/13/2010 10:00:00 AM,93.28363636,4.559090909,262.1236249,1.617272727
9/13/2010 11:00:00 AM,120.0936364,11.06363636,19.51037876,2.066363636
9/13/2010 12:00:00 PM,354.7890909,9.070909091,19.53391503,2.032727273
9/13/2010 1:00:00 PM,78.98,12.40181818,356.7106917,2.083636364
9/13/2010 2:00:00 PM,94.58272727,12.03727273,324.4885877,2.413636364
9/13/2010 3:00:00 PM,136.51,14.44909091,4.651193598,2.75
9/13/2010 4:00:00 PM,204.9436364,16.25909091,17.89010629,2.134545455
9/13/2010 5:00:00 PM,112.0154545,17.53363636,350.490729,1.947272727
9/13/2010 6:00:00 PM,141.4918182,13.51636364,6.360320876,1.62
9/13/2010 7:00:00 PM,164.9681818,5.651818182,29.73974941,1.505454545
9/13/2010 8:00:00 PM,196.2945455,3.968181818,16.73876832,1.468181818
9/13/2010 9:00:00 PM,177.8263636,3.943636364,32.77812825,1.555454545
9/13/2010 10:00:00 PM,152.0290909,4.254545455,42.73691459,3.55
9/13/2010 11:00:00 PM,87.08545455,1.34,47.05449208,4.305454545
9/14/2010 12:00:00 AM,65.13,1.505454545,45.29491212,2.669090909
9/14/2010 1:00:00 AM,58.96909091,4.352727273,55.74648574,1.292727273
9/14/2010 2:00:00 AM,58.11636364,6.422727273,46.66490787,2.409090909
9/14/2010 3:00:00 AM,56.47272727,8.166363636,44.76632684,3.003636364
9/14/2010 4:00:00 AM,66.71727273,3.834545455,336.0476474,1.301818182
9/14/2010 5:00:00 AM,87.57272727,3.791818182,330.1119318,0.96
9/14/2010 6:00:00 AM,87.69454545,2.72,50.65278321,0.549090909
9/14/2010 7:00:00 AM,332.5927273,3.475454545,279.6023712,0.526363636
9/14/2010 8:00:00 AM,429.4345455,7.139090909,349.1083285,1.544545455
9/14/2010 9:00:00 AM,194.1663636,3.560909091,299.0764396,2.070909091
9/14/2010 10:00:00 AM,119.6390909,3.004545455,254.586685,2.220909091
9/14/2010 11:00:00 AM,82.17909091,3.381818182,278.8642035,2.032727273
9/14/2010 12:00:00 PM,83.14818182,3.350909091,306.2466309,2.127272727
9/14/2010 1:00:00 PM,99.35272727,3.389090909,21.46318221,2.379090909
9/14/2010 2:00:00 PM,495.5218182,2.340909091,352.0958786,2.398181818
9/14/2010 3:00:00 PM,152.3527273,3.149090909,13.91450965,3.15
9/14/2010 4:00:00 PM,123.7745455,2.864545455,11.15198516,2.911818182
9/14/2010 5:00:00 PM,90.44909091,1.363636364,353.5616112,2.533636364
9/14/2010 6:00:00 PM,148.8081818,1.121818182,1.978055916,1.813636364
9/14/2010 7:00:00 PM,137.9209091,1.347272727,355.7549287,1.593636364
9/14/2010 8:00:00 PM,180.1372727,1.512727273,8.363490743,1.500909091
9/14/2010 9:00:00 PM,185.2045455,1.291818182,36.23068595,2.022727273
9/14/2010 10:00:00 PM,128.0027273,2.239090909,46.76137445,3.101818182
9/14/2010 11:00:00 PM,88.54272727,5.329090909,48.10725512,3.189090909
9/15/2010 12:00:00 AM,116.4118182,3.536363636,268.7422877,1.039090909
9/15/2010 1:00:00 AM,162.6390909,2.870909091,48.96786759,1.632727273
9/15/2010 2:00:00 AM,112.0218182,1.450909091,50.08892101,3.566363636
9/15/2010 3:00:00 AM,44.76636364,6.14,42.63525314,3.363636364
9/15/2010 4:00:00 AM,46.90454545,4.694545455,11.63281728,1.69
9/15/2010 5:00:00 AM,87.89636364,2.742727273,90.96275832,1.185454545
9/15/2010 6:00:00 AM,115.9681818,3.650909091,86.51076676,1.387272727
9/15/2010 7:00:00 AM,216.9872727,4.03,131.8963272,0.42
9/15/2010 8:00:00 AM,413.3554545,4.740909091,283.9506578,2.107272727
9/15/2010 9:00:00 AM,205.8754545,3.504545455,305.9112425,3.579090909
9/15/2010 10:00:00 AM,170.8627273,6.214545455,308.467535,3.655454545
9/15/2010 11:00:00 AM,99.85818182,6.339090909,314.1516415,2.877272727
9/15/2010 12:00:00 PM,140.2154545,7.158181818,316.8395551,3.060909091
9/15/2010 1:00:00 PM,107.0463636,7.236363636,318.1410491,3.674545455
9/15/2010 2:00:00 PM,352.3481818,3.705454545,281.413273,3.872727273
9/15/2010 3:00:00 PM,148.4572727,3.138181818,286.0424655,3.923636364
9/15/2010 4:00:00 PM,146.5690909,4.014545455,292.1471792,3.580909091
9/15/2010 5:00:00 PM,136.4245455,3.064545455,307.0467875,2.613636364
9/15/2010 6:00:00 PM,131.6163636,2.680909091,342.1927901,1.544545455
9/15/2010 7:00:00 PM,172.0690909,2.244545455,359.0380179,1.857272727
9/15/2010 8:00:00 PM,149.6527273,1.804545455,7.116156782,1.843636364
9/15/2010 9:00:00 PM,98.23909091,1.346363636,359.1444949,1.355454545
9/15/2010 10:00:00 PM,136.2327273,1.217272727,63.10544557,0.597272727
9/15/2010 11:00:00 PM,145.6863636,1.315454545,72.16531362,0.681818182
9/16/2010 12:00:00 AM,98.12090909,1.279090909,301.4204832,0.469090909
9/16/2010 1:00:00 AM,80.86636364,1.285454545,272.6141343,0.328181818
9/16/2010 2:00:00 AM,89.70909091,1.333636364,57.90344853,0.28
9/16/2010 3:00:00 AM,74.28727273,1.353636364,228.795535,0.386363636
9/16/2010 4:00:00 AM,74.47272727,1.634545455,65.46721491,1.243636364
9/16/2010 5:00:00 AM,105.1636364,1.444545455,304.4115451,0.874545455
9/16/2010 6:00:00 AM,241.9936364,2.145454545,321.68028,0.703636364
9/16/2010 7:00:00 AM,434.1509091,2.823636364,74.08151601,0.368181818